(112511) = 1994 WE8 = 2002 PP24

Discovered at Palomar on 2002-08-06 by NEAT.

Orbit

Orbit type: Main Belt

Note: WebGL enabled browser required.

epoch2023-02-25.0
epoch JD2460000.5
perihelion date2021-02-28.49806
perihelion JD2459273.99806
argument of perihelion (°)223.63995
ascending node (°)145.27917
inclination (°)6.40149
eccentricity0.0148021
perihelion distance (AU)2.6777080
Tisserand w.r.t. Jupiter3.4
ΔV w.r.t. Earth (km/sec)10.4
semimajor axis (AU)2.7179393
mean anomaly (°)159.80155
mean daily motion (°/day)0.21996030
aphelion distance (AU)2.758
period (years)4.48
P-vector [x]0.98545733
P-vector [y]0.16960872
P-vector [z]-0.01033124
Q-vector [x]-0.15761019
Q-vector [y]0.93508105
Q-vector [z]0.31746254
absolute magnitude16.33
phase slope0.15
uncertainty0
referenceMPO 745323
observations used571
oppositions19
arc length (days)10401
first opposition used1994
last opposition used2023
residual rms (arc-secs)0.74
perturbers coarse indicatorM-v
perturbers precise indicator003Ek
first observation date used1994-11-28.0
last observation date used2023-05-21.0
computer nameMPCLINUX
JD of orbit computation2456937.213959
perihelion JD uncertainty (days)4.7502E-04
argument of perihelion uncertainty (°)1.0858E-04
ascending node uncertainty (°)3.6179E-05
inclination uncertainty (°)4.2009E-06
eccentricity uncertainty 4.3997E-08
perihelion distance uncertainty (AU)1.2010E-07
Minimum Orbit Intersection Distances (in AU)
for orbit epoch: 2460000.5, reference: E2023-K85
Mercury2.26551
Venus1.95161
Earth1.67328
Mars1.08505
Jupiter2.28272
Saturn6.35923
Uranus15.6878
Neptune27.179

Observations

571 total observations over interval: 1994 11 28.29637 – 2023 05 21.191110
These data are available for download (format description).

Date (UT) J2000 RA J2000 Dec Magn Location Ref
1994 11 28.29637 03 52 31.50 +09 58 38.9   691 – Steward Observatory, Kitt Peak-Spacewatch MPC 24492
1994 11 28.31965 03 52 30.18 +09 58 36.5 19.8 V 691 – Steward Observatory, Kitt Peak-Spacewatch MPC 24492
1994 11 28.34308 03 52 28.65 +09 58 29.3   691 – Steward Observatory, Kitt Peak-Spacewatch MPC 24492
1994 12 10.30002 03 42 25.47 +09 43 44.5   691 – Steward Observatory, Kitt Peak-Spacewatch MPC 24492
1994 12 10.32838 03 42 24.14 +09 43 43.5 20.4 V 691 – Steward Observatory, Kitt Peak-Spacewatch MPC 24492
1994 12 10.35034 03 42 23.19 +09 43 43.4   691 – Steward Observatory, Kitt Peak-Spacewatch MPC 24492
1996 03 23.27026 10 40 41.53 +12 02 06.4 20.7 V 691 – Steward Observatory, Kitt Peak-Spacewatch MPS 120463
1996 03 23.29166 10 40 40.69 +12 02 13.3   691 – Steward Observatory, Kitt Peak-Spacewatch MPS 120463
1996 03 23.31298 10 40 39.83 +12 02 19.7   691 – Steward Observatory, Kitt Peak-Spacewatch MPS 120463
2001 05 24.252610 13 53 14.251 -01 57 50.62 20.65 V 645 – Apache Point-Sloan Digital Sky Survey MPS 129983
2001 05 24.256082 13 53 14.146 -01 57 50.36 21.52   645 – Apache Point-Sloan Digital Sky Survey MPS 129983
2002 07 22.37201 21 28 48.60 -12 30 55.6 20.1 R 644 – Palomar Mountain/NEAT MPS 120463
2002 08 06.40858 21 17 26.38 -13 58 28.6 19.7   644 – Palomar Mountain/NEAT MPS 60151
2002 08 06.41904 21 17 25.87 -13 58 32.7 20.1   644 – Palomar Mountain/NEAT MPS 60151
2002 08 06.43078 21 17 25.27 -13 58 37.3 20.3   644 – Palomar Mountain/NEAT MPS 60151
2002 08 07.39368 21 16 37.92 -14 04 37.0 19.8   644 – Palomar Mountain/NEAT MPS 60151
2002 08 07.41117 21 16 36.99 -14 04 43.6 19.6   644 – Palomar Mountain/NEAT MPS 60151
2002 08 07.42759 21 16 36.16 -14 04 49.5 19.9   644 – Palomar Mountain/NEAT MPS 60151
2002 08 11.36860 21 13 21.21 -14 29 28.5 19.4   644 – Palomar Mountain/NEAT MPS 60151
2002 08 11.38149 21 13 20.56 -14 29 33.5 19.9   644 – Palomar Mountain/NEAT MPS 60151
2002 08 11.39492 21 13 19.89 -14 29 38.4 19.7   644 – Palomar Mountain/NEAT MPS 60151
2002 08 17.26162 21 08 33.64 -15 06 00.6 19.6 R 644 – Palomar Mountain/NEAT MPS 120463
2002 08 17.28728 21 08 32.37 -15 06 10.6 19.4 R 644 – Palomar Mountain/NEAT MPS 120463
2002 08 27.23385 21 01 07.85 -16 04 07.6 19.7 R 644 – Palomar Mountain/NEAT MPS 120463
2002 08 27.25498 21 01 06.92 -16 04 14.5 19.8 R 644 – Palomar Mountain/NEAT MPS 120463
2002 08 27.28538 21 01 05.65 -16 04 24.7 20.2 R 644 – Palomar Mountain/NEAT MPS 120463
2003 12 22.17019 03 53 24.94 +10 48 21.8 21.5 V 691 – Steward Observatory, Kitt Peak-Spacewatch MPS 120463
2003 12 22.19795 03 53 23.87 +10 48 22.9 21.1 V 691 – Steward Observatory, Kitt Peak-Spacewatch MPS 120463
2003 12 22.22557 03 53 22.82 +10 48 24.3 21.2 V 691 – Steward Observatory, Kitt Peak-Spacewatch MPS 120463
2005 03 03.16580 11 12 17.87 +08 38 57.8 20.2 V 691 – Steward Observatory, Kitt Peak-Spacewatch MPS 127152
2005 03 03.20019 11 12 16.18 +08 39 13.3 20.0 V 691 – Steward Observatory, Kitt Peak-Spacewatch MPS 127152
2005 03 03.22939 11 12 14.73 +08 39 26.6 19.7 V 691 – Steward Observatory, Kitt Peak-Spacewatch MPS 127152
2005 03 03.29703 11 12 11.31 +08 39 56.4 19.6 R 703 – Catalina Sky Survey MPS 127152
2005 03 03.30504 11 12 10.88 +08 39 59.9 19.4 R 703 – Catalina Sky Survey MPS 127152
2005 03 03.31307 11 12 10.49 +08 40 04.1 19.0 R 703 – Catalina Sky Survey MPS 127152
2005 03 03.32122 11 12 10.15 +08 40 06.4 18.9 R 703 – Catalina Sky Survey MPS 127152
2005 03 07.25543 11 09 00.69 +09 09 04.4 19.1   704 – Lincoln Laboratory ETS, New Mexico MPS 127886
2005 03 07.26714 11 08 59.96 +09 09 09.5 19.1   704 – Lincoln Laboratory ETS, New Mexico MPS 127886
2005 03 07.27880 11 08 59.50 +09 09 13.8 20.0   704 – Lincoln Laboratory ETS, New Mexico MPS 127886
2005 03 07.29045 11 08 58.85 +09 09 21.2 19.7   704 – Lincoln Laboratory ETS, New Mexico MPS 127886
2005 03 07.30282 11 08 58.16 +09 09 25.6 19.8   704 – Lincoln Laboratory ETS, New Mexico MPS 127886
2005 03 09.17883 11 07 27.75 +09 22 59.7 19.4 R 699 – Lowell Observatory-LONEOS MPS 127886
2005 03 09.19826 11 07 26.64 +09 23 05.6   699 – Lowell Observatory-LONEOS MPS 127886
2005 03 09.21770 11 07 25.80 +09 23 16.0   699 – Lowell Observatory-LONEOS MPS 127886
2005 03 09.23716 11 07 24.91 +09 23 25.9   699 – Lowell Observatory-LONEOS MPS 127886
2005 03 09.30218 11 07 21.58 +09 23 51.8 19.7   704 – Lincoln Laboratory ETS, New Mexico MPS 127886
2005 03 09.31435 11 07 20.96 +09 23 59.7 19.6   704 – Lincoln Laboratory ETS, New Mexico MPS 127886
2005 03 09.32650 11 07 20.37 +09 24 04.7 19.6   704 – Lincoln Laboratory ETS, New Mexico MPS 127886
2005 03 09.33889 11 07 19.78 +09 24 09.3 19.6   704 – Lincoln Laboratory ETS, New Mexico MPS 127886
2005 03 12.29095 11 04 58.17 +09 45 02.5 19.8   704 – Lincoln Laboratory ETS, New Mexico MPS 129009
2005 03 12.30236 11 04 57.56 +09 45 06.7 20.0   704 – Lincoln Laboratory ETS, New Mexico MPS 129009
2005 03 12.32520 11 04 56.54 +09 45 16.9 19.6   704 – Lincoln Laboratory ETS, New Mexico MPS 129009
2005 04 09.13413 10 47 50.62 +12 08 23.7 20.6 V 691 – Steward Observatory, Kitt Peak-Spacewatch MPS 131616
2005 04 09.14993 10 47 50.27 +12 08 26.2 20.8 V 691 – Steward Observatory, Kitt Peak-Spacewatch MPS 131616
2005 04 09.16579 10 47 49.94 +12 08 29.0 20.5 V 691 – Steward Observatory, Kitt Peak-Spacewatch MPS 131616
2007 09 10.38474 01 12 59.01 +00 51 10.7 19.6 V 691 – Steward Observatory, Kitt Peak-Spacewatch MPS 215816
2007 09 10.40233 01 12 58.56 +00 51 04.6 19.8 V 691 – Steward Observatory, Kitt Peak-Spacewatch MPS 215816
2007 09 10.41991 01 12 58.01 +00 50 57.5 20.1 V 691 – Steward Observatory, Kitt Peak-Spacewatch MPS 215816
2007 09 14.44240 01 10 54.42 +00 25 01.8 20.0 V 691 – Steward Observatory, Kitt Peak-Spacewatch MPS 215816
2007 09 14.45998 01 10 53.82 +00 24 55.2 20.0 V 691 – Steward Observatory, Kitt Peak-Spacewatch MPS 215816
2007 09 14.47820 01 10 53.18 +00 24 47.9 20.0 V 691 – Steward Observatory, Kitt Peak-Spacewatch MPS 215816
2007 09 18.36691 01 08 36.01 -00 01 27.5 20.0 V 691 – Steward Observatory, Kitt Peak-Spacewatch MPS 217563
2007 09 18.38447 01 08 35.34 -00 01 34.6 19.9 V 691 – Steward Observatory, Kitt Peak-Spacewatch MPS 217563
2007 09 18.40205 01 08 34.65 -00 01 42.0 20.0 V 691 – Steward Observatory, Kitt Peak-Spacewatch MPS 217563
2007 10 13.19919 00 50 02.04 -02 50 38.1 19.5   704 – Lincoln Laboratory ETS, New Mexico MPS 222101
2007 10 13.21035 00 50 01.59 -02 50 41.6 20.4   704 – Lincoln Laboratory ETS, New Mexico MPS 222101
2007 10 13.23264 00 50 00.56 -02 50 49.3 19.8   704 – Lincoln Laboratory ETS, New Mexico MPS 222101
2007 10 13.24378 00 49 59.97 -02 50 53.4 20.3   704 – Lincoln Laboratory ETS, New Mexico MPS 222101
2007 10 19.24250 00 45 27.93 -03 24 30.2 19.9 V 703 – Catalina Sky Survey MPS 223200
2007 10 19.24910 00 45 27.50 -03 24 31.7 20.4 V 703 – Catalina Sky Survey MPS 223200
2007 10 19.25568 00 45 27.21 -03 24 31.6 19.4 V 703 – Catalina Sky Survey MPS 223200
2007 10 19.26226 00 45 26.96 -03 24 34.7 19.7 V 703 – Catalina Sky Survey MPS 223200
2009 01 17.27572 07 53 43.54 +16 02 15.9 20.0   704 – Lincoln Laboratory ETS, New Mexico MPS 275472
2009 01 17.28834 07 53 42.90 +16 02 18.2 20.1   704 – Lincoln Laboratory ETS, New Mexico MPS 275472
2009 01 17.30094 07 53 42.17 +16 02 24.0 20.1   704 – Lincoln Laboratory ETS, New Mexico MPS 275472
2009 01 17.31362 07 53 41.39 +16 02 27.8 20.1   704 – Lincoln Laboratory ETS, New Mexico MPS 275472
2009 01 17.32641 07 53 40.77 +16 02 31.8 20.0   704 – Lincoln Laboratory ETS, New Mexico MPS 275472
2009 01 18.31002 07 52 45.76 +16 07 03.9 19.7 V G96 – Mt. Lemmon Survey MPS 275472
2009 01 18.31610 07 52 45.40 +16 07 05.8 19.7 V G96 – Mt. Lemmon Survey MPS 275472
2009 01 18.32230 07 52 45.04 +16 07 07.3 19.9 V G96 – Mt. Lemmon Survey MPS 275472
2009 01 18.32850 07 52 44.68 +16 07 09.2 19.8 V G96 – Mt. Lemmon Survey MPS 275472
2009 01 28.15600 07 43 49.72 +16 53 37.8 20.7 V 703 – Catalina Sky Survey MPS 275472
2009 01 28.16088 07 43 49.47 +16 53 39.2 20.4 V 703 – Catalina Sky Survey MPS 275472
2009 01 28.16578 07 43 49.18 +16 53 41.2 20.2 V 703 – Catalina Sky Survey MPS 275472
2009 01 28.17067 07 43 48.90 +16 53 41.9 21.2 V 703 – Catalina Sky Survey MPS 275472
